TimeEST,TemperatureF,Dew PointF,Humidity,Sea Level PressureIn,VisibilityMPH,Wind Direction,Wind SpeedMPH,Gust SpeedMPH,PrecipitationIn,Events,Conditions,WindDirDegrees,DateUTC
12:53 AM,26.1,23.0,88,30.37,6.0,Calm,Calm,-,N/A,,Clear,0,2012-11-15 05:53:00
1:53 AM,25.0,21.9,88,30.35,5.0,Calm,Calm,-,N/A,,Clear,0,2012-11-15 06:53:00
2:53 AM,23.0,21.0,92,30.36,4.0,Calm,Calm,-,N/A,,Clear,0,2012-11-15 07:53:00
3:53 AM,24.1,21.9,91,30.35,4.0,Calm,Calm,-,N/A,,Clear,0,2012-11-15 08:53:00
4:53 AM,24.1,21.0,88,30.35,4.0,Calm,Calm,-,N/A,,Clear,0,2012-11-15 09:53:00
5:53 AM,23.0,19.9,88,30.36,3.0,Calm,Calm,-,N/A,,Clear,0,2012-11-15 10:53:00
6:53 AM,23.0,19.9,88,30.37,4.0,Calm,Calm,-,N/A,,Clear,0,2012-11-15 11:53:00
7:53 AM,23.0,19.9,88,30.38,2.5,Calm,Calm,-,N/A,,Clear,0,2012-11-15 12:53:00
8:04 AM,24.8,21.2,86,30.36,4.0,Calm,Calm,-,N/A,,Clear,0,2012-11-15 13:04:00
8:53 AM,30.0,28.0,92,30.40,3.0,Calm,Calm,-,N/A,,Clear,0,2012-11-15 13:53:00
9:53 AM,35.1,28.9,78,30.40,5.0,Calm,Calm,-,N/A,,Haze,0,2012-11-15 14:53:00
10:53 AM,39.0,28.9,67,30.40,8.0,East,3.5,-,N/A,,Clear,80,2012-11-15 15:53:00
11:53 AM,43.0,28.0,56,30.38,10.0,North,4.6,-,N/A,,Clear,10,2012-11-15 16:53:00
12:53 PM,44.1,28.0,53,30.37,10.0,NNE,4.6,-,N/A,,Clear,30,2012-11-15 17:53:00
1:53 PM,45.0,30.0,56,30.35,10.0,Variable,3.5,-,N/A,,Clear,0,2012-11-15 18:53:00
2:53 PM,46.0,28.9,51,30.33,10.0,Calm,Calm,-,N/A,,Clear,0,2012-11-15 19:53:00
3:53 PM,46.9,28.9,50,30.33,10.0,Calm,Calm,-,N/A,,Clear,0,2012-11-15 20:53:00
4:53 PM,46.0,30.0,54,30.34,10.0,Calm,Calm,-,N/A,,Clear,0,2012-11-15 21:53:00
5:53 PM,42.1,28.9,60,30.34,10.0,Calm,Calm,-,N/A,,Clear,0,2012-11-15 22:53:00
6:53 PM,34.0,28.0,79,30.36,9.0,Calm,Calm,-,N/A,,Clear,0,2012-11-15 23:53:00
7:53 PM,30.9,27.0,85,30.37,9.0,Calm,Calm,-,N/A,,Clear,0,2012-11-16 00:53:00
8:53 PM,28.9,26.1,89,30.38,7.0,Calm,Calm,-,N/A,,Clear,0,2012-11-16 01:53:00
9:53 PM,30.0,26.1,85,30.38,6.0,Calm,Calm,-,N/A,,Clear,0,2012-11-16 02:53:00
10:53 PM,28.9,26.1,89,30.38,5.0,Calm,Calm,-,N/A,,Clear,0,2012-11-16 03:53:00
11:53 PM,27.0,25.0,92,30.38,4.0,Calm,Calm,-,N/A,,Clear,0,2012-11-16 04:53:00